FALCON 9 DEB (46593 NORAD) Tracking and Keplerian Element Data

This shows tracking and keplerian element data for the satellite.

Feedback or suggestion? Click here.




ElementValue
Catalog46593
NameFALCON 9 DEB
Epoch Orbit576
Epoch Day311.36673986
Epoch Year2020
RAAN282.5041
Inclination52.9769
Eccentricity0.0001486
Argument of Perigee88.1337
Mean Anonmoly271.9883
Mean Motion16.51049489
Decay Rate0.13230374
L11 46593U 20070BP 20311.36673986 .13230374 12675-4 12921-3 0 9997
L22 46593 52.9769 282.5041 0001486 88.1337 271.9883 16.51049489 5761

Live tracking and technical data element details for FALCON 9 DEB (NORAD 46593). FALCON 9 DEB can be tracked NOW for your location showing map with azimuth and elevation plus other details from your city location.

Track the satellite on the map from your city or location and see movement details for azimuth, elevation, latitude, longitude, range, height, and movement on the map or in text.







IsCatalogInMostPopularTable: catalog: 46593, numindb: 13
Update: records affected: 1



GetName: 46593 FALCON 9 DEB

Hit Count: updated at: Fri, 27 Nov 2020 00:25:32 GMT